User: anonymous   Login
Location: Unspecified
(0.0000°N, 0.0000°E)
Time: 02:42:44
(UTC+00:00)
Language:

NOAA 6 - Orbit

View from above orbital plane
View from above orbital plane
View from above satellite
View from above satellite

Ground track
Ground track

The orbit data is extracted from the following two-line orbital elements,

1 11416U 79057A   18344.49078529  .00000018  00000-0  22641-4 0  9993
2 11416  98.6248 334.1055 0011432  89.4978 270.7516 14.33508114 57627
Epoch (UTC): 10 December 2018 11:46:43
Eccentricity: 0.0011432
inclination: 98.6248°
perigee height: 772 km
apogee height: 788 km
right ascension of ascending node: 334.1055°
argument of perigee: 89.4978°
revolutions per day: 14.33508114
mean anomaly at epoch: 270.7516°
orbit number at epoch: 5762

The dashed part of the orbit path shows where the satellite is in the earth's shadow,  

DLR